Temperature
22 21 20 20 20 19 19 18 18 18 17 17 16 16 16 15 15 14 14 14 14 13 13 13 13 13 13 13 13 13 13 13 14 14 15 15 15 15 15 15 15 15 16
22 21 20 20 20 19 19 18 18 18 17 17 16 16 16 15 15 14 14 14 14 13 13 13 13 13 13 13 13 13 13 13 13 14 15 15 15 15 15 15 15 15 15
22 21 20 20 20 19 19 19 18 18 18 17 16 16 16 15 15 14 14 14 14 13 13 13 13 13 13 13 13 13 13 13 13 14 14 15 16 15 15 15 15 15 15
21 21 20 20 20 19 19 19 18 18 18 17 17 16 16 15 15 14 14 14 14 13 13 13 13 13 13 13 13 13 13 13 13 13 14 14 14 15 15 15 15 15 15
21 21 20 20 20 19 19 19 18 18 18 17 17 16 16 15 15 14 14 14 14 13 13 13 13 13 13 13 13 13 13 13 13 13 13 13 14 14 15 15 15 15 15
21 21 20 20 19 19 19 19 19 18 18 17 17 16 16 15 15 14 14 14 14 13 13 13 13 13 13 13 13 13 13 13 13 13 13 13 14 14 14 15 15 15 14
21 21 20 20 20 20 19 19 19 18 18 17 17 16 16 15 15 14 14 14 14 14 13 13 13 13 13 13 13 13 13 13 13 13 13 13 13 13 14 14 14 14 14
21 20 20 20 20 20 19 19 19 18 18 17 17 16 16 15 15 15 14 14 14 14 13 13 13 13 13 13 13 13 12 12 13 13 13 13 13 13 13 13 14 14 15
20 20 20 20 20 20 20 19 19 18 18 17 17 16 16 15 15 15 14 14 14 14 14 13 13 13 13 13 13 13 13 12 13 13 13 13 13 13 13 13 13 14 15
20 20 20 20 20 20 20 19 19 18 18 17 17 16 16 15 15 15 15 14 14 14 14 14 13 13 13 13 13 13 13 13 13 13 13 13 13 13 13 13 13 13 14
19 19 19 19 19 19 19 19 19 18 18 17 17 16 16 16 15 15 15 14 14 14 14 13 13 13 13 13 13 13 13 13 13 12 12 12 12 13 13 13 13 13 13
19 19 19 19 19 19 19 19 18 18 18 17 17 17 16 16 15 15 15 14 14 14 14 14 13 13 13 13 13 13 13 13 13 13 12 12 13 13 13 13 13 13 13
18 18 19 19 19 19 19 19 18 18 18 17 17 17 16 16 15 15 15 15 14 14 14 14 13 13 13 13 13 13 13 13 13 13 13 13 13 13 13 13 13 13 13
18 18 18 18 18 18 18 18 18 18 18 17 17 17 16 16 16 15 15 15 14 14 14 14 14 13 13 13 13 13 13 13 13 13 13 13 13 13 13 13 13 13 13
17 17 17 18 18 18 18 18 18 18 17 17 17 16 16 16 16 15 15 15 15 14 14 14 14 14 14 13 13 13 13 13 13 13 13 13 13 13 13 13 13 13 13
17 17 17 17 17 17 18 18 18 17 17 17 16 16 16 16 16 15 15 15 15 15 14 14 14 14 14 14 14 13 13 13 13 13 13 13 13 13 13 13 13 13 13
17 17 17 17 17 17 17 17 17 17 17 16 16 16 16 16 16 15 15 15 15 15 15 14 14 14 14 14 14 14 13 13 13 13 13 13 13 13 13 13 13 13 13
16 16 16 16 17 17 17 17 17 16 16 16 16 16 16 16 15 15 15 15 15 14 15 14 14 14 14 14 14 14 13 13 13 13 13 13 13 13 13 13 12 13 13
16 16 16 16 16 16 16 16 16 16 16 16 15 15 15 15 15 15 15 15 14 14 14 14 14 14 14 14 14 14 13 13 13 13 13 13 13 13 13 13 12 12 13
16 16 16 16 16 16 16 16 16 15 15 15 15 15 15 15 15 15 14 14 14 14 14 14 14 14 14 14 14 14 13 13 13 13 13 13 13 13 13 13 13 12 12
15 16 15 15 15 15 15 15 15 15 15 15 14 14 14 14 14 14 14 14 14 13 13 13 13 13 14 14 14 14 13 13 13 13 13 13 13 13 13 13 13 12 12
15 15 15 15 15 15 15 14 14 14 14 14 14 14 14 14 14 14 14 13 13 13 13 13 13 13 13 13 14 14 13 13 13 13 13 13 13 13 13 13 13 12 12
15 15 14 14 14 14 14 14 14 14 14 14 14 14 14 13 13 13 13 13 13 13 13 13 13 13 13 13 13 13 13 13 13 13 13 13 13 13 13 13 12 12 12
14 14 14 14 13 13 13 13 13 13 13 13 13 13 13 13 13 13 13 12 12 12 12 12 12 12 12 12 12 13 13 13 13 12 12 12 12 12 12 12 12 12 11
13 13 13 13 13 13 13 12 12 12 12 12 12 12 12 12 12 12 12 12 12 12 12 12 12 12 12 12 12 12 12 12 12 12 12 12 12 11 11 11 11 11 11
12 12 12 12 12 12 12 12 12 12 12 12 12 11 11 11 11 11 12 12 12 12 12 12 12 12 12 12 12 12 11 11 11 11 11 11 11 11 11 11 11 11 11
Wind_Speed
8 8 9 9 9 8 8 7 7 6 5 3 2 1 1 1 1 1 2 2 3 4 4 4 5 5 4 5 5 4 3 3 3 3 2 2 1 0 1 1 2 1 2
7 9 9 9 9 9 8 8 7 7 6 4 2 1 0 1 1 1 1 2 3 4 4 5 4 4 4 4 4 3 3 2 2 3 2 2 2 1 0 0 1 1 1
6 8 9 9 8 8 8 7 7 7 6 5 3 2 1 2 1 1 1 2 3 3 4 5 5 5 4 4 4 3 3 3 2 2 3 2 1 1 1 0 0 0 1
6 7 8 8 8 8 7 7 7 7 6 6 4 3 2 1 1 1 1 2 2 3 4 4 5 4 4 4 4 3 3 3 3 2 2 3 2 1 1 2 1 1 0
5 6 7 7 7 7 7 7 7 6 6 6 5 4 3 2 1 2 2 2 2 2 3 4 4 4 4 4 4 3 3 2 3 2 2 2 2 3 2 1 1 1 1
4 5 5 5 6 6 6 6 7 6 6 6 6 5 4 3 2 2 2 3 2 2 3 3 4 4 3 3 3 3 2 2 2 3 2 2 2 1 2 2 2 1 1
4 5 5 6 6 6 7 7 7 7 7 7 6 6 5 4 4 3 3 3 3 3 3 3 4 4 3 3 3 3 2 2 2 2 2 2 2 2 2 2 2 2 1
3 3 4 4 5 6 7 7 7 7 7 7 6 6 5 4 3 4 4 4 3 3 4 4 3 3 3 3 3 3 3 2 2 2 2 2 2 2 2 2 2 2 2
3 2 2 2 3 4 5 7 7 7 7 7 6 6 6 5 4 4 4 4 4 4 4 4 3 3 3 3 3 3 3 3 3 3 3 3 2 2 2 3 3 3 3
4 3 2 2 2 2 3 5 6 7 6 6 6 5 6 5 5 5 5 5 4 4 4 4 4 3 3 3 3 3 3 3 2 2 3 3 3 2 2 2 2 3 3
4 3 2 2 1 2 2 4 5 6 6 6 6 6 6 5 5 5 5 5 5 4 4 4 4 3 3 3 3 4 3 3 3 3 3 3 3 3 3 3 3 3 3
5 4 4 3 2 1 1 2 4 5 5 5 6 6 6 6 6 6 6 6 5 5 5 5 4 4 3 4 4 4 3 3 3 2 3 3 3 3 3 3 3 3 4
5 5 4 4 2 1 0 1 3 4 4 5 5 6 6 6 6 6 6 6 6 6 5 5 5 5 5 4 4 4 4 4 4 3 3 3 3 4 3 4 4 4 4
5 4 4 3 3 2 1 1 2 2 3 4 5 6 6 6 7 7 6 7 7 6 6 6 6 6 6 5 5 5 5 5 4 4 4 4 4 4 4 4 4 4 4
5 5 4 3 3 2 2 1 1 1 2 3 4 5 5 5 6 6 7 7 7 7 7 7 7 6 6 5 6 6 6 5 5 5 5 5 4 4 4 4 4 4 4
4 4 4 4 3 3 2 2 1 1 1 2 3 3 4 5 5 6 6 7 7 7 7 7 7 7 6 4 6 7 7 6 6 6 6 5 6 7 7 6 6 6 6
4 4 4 4 3 3 3 2 2 1 1 2 2 3 3 4 5 6 6 7 7 7 8 8 8 9 7 5 7 9 8 8 7 7 6 5 5 7 7 9 10 9 9
4 4 4 4 4 4 3 2 2 1 1 2 3 3 4 4 5 5 6 7 7 7 8 8 9 8 7 6 8 9 10 9 8 7 7 7 6 6 7 7 8 8 8
4 4 4 4 4 4 4 3 2 2 2 3 4 4 4 4 5 5 6 7 7 8 8 8 9 9 9 7 8 9 8 8 9 8 7 8 7 4 5 8 8 7 6
4 4 4 4 5 5 4 3 3 3 4 4 5 5 5 5 5 6 6 6 7 8 8 8 9 10 10 7 8 10 8 9 8 7 7 6 7 5 7 8 8 8 6
4 4 4 4 5 5 4 4 4 5 6 6 6 6 6 6 6 6 6 6 7 7 8 9 9 10 10 8 9 10 9 9 9 8 7 6 7 7 8 9 8 6 6
4 4 4 4 4 5 5 5 6 6 6 6 6 6 7 6 6 7 7 7 7 8 9 9 10 9 9 9 9 11 13 10 10 9 8 6 7 8 9 9 6 4 5
3 4 4 4 4 5 5 6 7 7 7 7 7 7 8 7 7 7 8 8 7 8 8 8 9 9 8 8 9 11 13 13 11 9 6 5 7 9 8 8 8 8 7
3 4 4 5 6 6 6 7 7 7 7 7 7 7 8 8 8 7 7 8 8 8 9 9 9 9 9 8 7 8 9 11 11 10 8 7 7 8 7 8 9 8 7
3 4 5 5 7 7 7 7 8 8 8 9 8 8 8 8 8 8 8 9 10 9 10 10 10 11 11 9 8 8 9 9 9 9 9 9 9 9 9 9 8 8 8
4 4 5 6 7 8 8 8 8 9 9 9 9 8 8 8 8 9 9 10 12 12 13 14 14 13 12 10 10 12 12 10 9 9 10 11 10 11 10 10 9 9 9
Wind_Direction
192 186 187 189 195 197 196 189 188 183 181 179 194 204 217 238 269 317 338 335 337 339 339 329 337 335 335 329 322 318 306 296 296 276 267 235 217 257 288 294 286 248 231
183 179 186 189 195 196 196 195 193 188 185 184 194 206 238 274 311 300 313 331 335 335 333 334 330 333 328 325 325 319 308 307 295 282 267 242 191 164 147 282 264 258 207
185 178 185 190 194 197 197 197 193 186 184 180 177 171 181 228 221 259 302 329 330 333 333 332 327 328 326 332 325 316 307 305 304 304 293 278 264 175 159 92 234 230 212
178 177 182 190 195 197 196 198 191 188 182 182 193 204 233 276 305 299 306 307 313 328 329 325 321 321 326 326 321 325 305 296 295 286 290 304 325 282 197 166 161 132 159
175 179 186 193 196 194 193 194 189 188 183 189 192 216 240 274 289 281 285 294 310 320 325 323 321 320 319 325 326 323 309 295 296 296 288 277 274 272 273 212 182 163 139
164 173 179 188 192 190 188 189 189 190 186 194 202 217 233 249 263 270 286 288 297 312 332 325 319 316 319 319 318 315 307 299 296 292 289 287 283 290 271 247 210 191 150
160 166 174 186 189 190 189 190 192 194 194 201 210 218 226 238 249 267 275 286 298 310 329 325 321 322 318 316 311 298 300 286 286 287 285 286 291 306 286 261 239 217 193
143 159 175 186 194 196 192 195 198 200 198 206 214 220 221 234 251 257 274 278 291 308 319 314 318 317 313 307 299 290 286 281 274 274 269 267 273 281 276 267 258 233 209
116 137 154 174 191 196 197 201 204 206 204 209 216 222 225 233 246 255 265 274 280 296 303 301 306 306 302 302 297 286 286 280 276 272 259 258 256 257 269 272 268 260 233
100 108 123 143 168 183 194 199 206 212 211 213 216 220 228 232 244 255 261 269 278 286 293 297 299 294 285 286 289 288 293 279 265 268 266 262 252 247 250 260 266 274 272
75 73 80 97 119 142 170 193 204 212 213 215 218 219 224 230 237 245 254 261 271 273 282 288 292 293 285 277 274 282 283 277 266 252 249 244 246 238 230 237 250 257 258
73 71 68 70 76 109 178 197 209 213 215 219 221 226 228 229 236 243 248 254 264 268 275 279 280 283 281 279 278 279 275 270 270 259 246 239 227 233 235 229 236 243 248
70 68 62 58 52 42 244 225 224 224 218 217 224 229 232 236 243 250 251 254 260 265 265 267 271 273 274 273 269 270 270 266 266 260 250 249 237 228 223 226 230 234 236
65 57 50 45 35 24 348 279 253 239 225 219 227 235 242 245 249 252 252 252 257 261 264 263 264 268 268 266 265 262 263 261 255 252 249 248 245 242 234 227 228 230 231
56 45 35 28 23 16 4 333 286 252 231 226 235 246 250 249 252 252 250 250 253 257 260 264 262 262 263 264 268 263 261 262 258 250 245 243 249 281 270 256 240 229 230
48 38 30 23 14 9 1 353 326 280 240 243 257 268 270 261 256 254 253 254 251 253 255 258 259 260 257 253 254 263 263 260 259 257 251 238 228 228 229 245 256 261 248
38 28 22 18 8 3 2 356 337 311 264 269 280 285 280 275 268 260 255 252 250 250 253 254 254 255 251 231 239 242 258 260 261 261 255 246 237 231 233 219 219 232 244
35 25 16 13 7 4 360 352 355 342 312 301 298 298 291 285 281 271 261 257 257 252 250 252 253 254 251 229 235 236 247 254 253 251 251 249 245 236 241 235 230 229 224
27 21 13 12 11 9 357 348 347 334 318 306 299 297 292 290 283 275 270 263 261 258 254 253 252 251 247 224 228 235 246 247 247 246 245 247 243 210 229 238 235 230 223
30 21 16 15 14 8 356 346 340 330 317 308 301 297 291 284 279 277 276 270 260 259 260 256 253 252 254 226 219 232 245 245 244 241 237 232 245 221 216 235 235 231 225
35 22 16 12 3 356 349 338 334 326 317 309 301 294 288 281 278 278 276 274 267 262 260 260 255 253 252 235 218 225 239 245 246 242 237 230 205 220 219 239 243 242 244
31 19 11 6 359 353 343 335 331 323 316 308 299 293 288 282 278 275 274 273 272 265 261 262 261 256 250 245 228 222 232 248 246 245 241 228 193 210 219 228 229 220 228
16 5 359 353 351 348 338 328 329 323 315 309 302 297 293 285 280 276 274 271 268 267 266 264 265 262 255 243 229 226 227 231 241 246 243 229 198 208 216 214 213 211 220
357 350 345 343 341 338 331 324 324 320 312 308 305 301 297 292 287 280 274 271 269 268 269 268 268 267 260 253 242 239 236 227 233 241 227 208 207 221 228 210 211 219 222
329 332 332 332 328 328 327 326 325 319 311 308 307 304 301 296 288 281 275 270 268 267 268 271 268 268 265 258 253 250 245 237 233 231 229 226 221 221 222 220 214 212 212
313 318 323 322 323 324 323 324 322 316 311 310 309 305 300 296 290 288 285 270 263 260 253 257 263 266 267 272 253 248 252 246 228 227 231 228 223 221 220 219 215 212 211
Height
1511 1513 1515 1517 1519 1521 1523 1524 1525 1526 1526 1526 1526 1526 1526 1525 1525 1524 1522 1521 1520 1519 1517 1516 1515 1513 1512 1511 1510 1509 1508 1507 1507 1507 1507 1506 1506 1506 1506 1507 1508 1509 1510
1509 1511 1513 1515 1518 1520 1521 1523 1524 1524 1525 1525 1525 1525 1525 1524 1524 1522 1522 1521 1519 1518 1517 1516 1514 1513 1511 1510 1508 1507 1507 1506 1506 1506 1506 1506 1507 1506 1506 1506 1507 1508 1509
1507 1510 1512 1514 1516 1518 1520 1521 1522 1523 1523 1524 1524 1524 1524 1523 1523 1522 1521 1520 1519 1517 1516 1514 1513 1512 1511 1509 1508 1507 1506 1506 1506 1506 1506 1506 1505 1505 1506 1506 1506 1507 1508
1506 1508 1510 1513 1514 1516 1518 1520 1521 1522 1522 1522 1523 1523 1523 1523 1523 1522 1521 1520 1518 1517 1515 1514 1512 1511 1510 1509 1507 1506 1505 1505 1505 1505 1505 1505 1505 1505 1505 1506 1505 1506 1507
1505 1507 1509 1511 1513 1515 1516 1518 1519 1520 1521 1521 1522 1522 1522 1522 1522 1521 1520 1519 1518 1516 1515 1513 1512 1510 1509 1508 1506 1505 1505 1504 1504 1504 1504 1504 1504 1505 1505 1505 1505 1506 1506
1504 1506 1508 1510 1512 1513 1515 1516 1517 1518 1519 1520 1520 1521 1521 1521 1520 1520 1519 1519 1518 1516 1515 1513 1511 1510 1509 1507 1506 1505 1504 1504 1503 1503 1504 1504 1504 1504 1504 1504 1505 1505 1506
1503 1505 1506 1508 1510 1511 1513 1514 1516 1517 1518 1518 1519 1520 1520 1520 1520 1519 1519 1518 1517 1516 1514 1513 1511 1509 1508 1506 1505 1504 1504 1503 1503 1502 1503 1503 1503 1503 1503 1504 1504 1505 1505
1502 1504 1505 1507 1508 1510 1511 1513 1514 1515 1516 1517 1518 1518 1518 1518 1518 1518 1517 1517 1516 1515 1514 1512 1510 1509 1507 1506 1505 1504 1503 1503 1502 1502 1501 1501 1502 1502 1502 1503 1504 1504 1504
1502 1503 1505 1506 1507 1508 1509 1511 1512 1514 1515 1515 1516 1517 1517 1517 1517 1516 1516 1515 1515 1514 1512 1511 1510 1508 1507 1505 1504 1504 1503 1502 1501 1501 1501 1500 1501 1500 1501 1501 1502 1504 1504
1502 1503 1504 1505 1506 1507 1508 1509 1510 1512 1513 1514 1515 1515 1515 1515 1515 1515 1514 1514 1513 1512 1511 1510 1509 1508 1506 1505 1504 1503 1502 1501 1500 1499 1499 1499 1499 1499 1500 1500 1501 1502 1503
1503 1503 1504 1505 1505 1506 1507 1508 1509 1510 1511 1512 1513 1513 1513 1513 1513 1513 1512 1512 1512 1511 1510 1509 1508 1507 1506 1505 1503 1502 1501 1500 1500 1499 1498 1498 1498 1498 1499 1499 1499 1500 1501
1503 1503 1504 1504 1505 1505 1506 1506 1507 1508 1509 1510 1510 1511 1511 1511 1511 1511 1511 1510 1510 1509 1509 1508 1507 1506 1505 1504 1503 1501 1500 1499 1499 1498 1498 1497 1497 1497 1497 1498 1498 1499 1499
1503 1503 1503 1503 1504 1504 1505 1505 1506 1506 1507 1507 1508 1508 1509 1509 1509 1509 1509 1508 1508 1507 1507 1506 1505 1504 1503 1502 1501 1500 1500 1499 1498 1497 1497 1496 1496 1496 1496 1496 1497 1497 1498
1503 1503 1503 1503 1503 1503 1503 1504 1504 1504 1505 1505 1505 1506 1506 1506 1506 1506 1506 1506 1505 1505 1504 1504 1503 1502 1501 1500 1500 1499 1498 1497 1497 1496 1495 1495 1495 1495 1495 1495 1495 1495 1496
1503 1503 1502 1502 1502 1502 1502 1502 1502 1502 1502 1503 1503 1503 1504 1503 1503 1503 1502 1502 1502 1502 1501 1501 1500 1500 1499 1498 1498 1497 1496 1496 1495 1494 1494 1493 1493 1493 1493 1493 1493 1493 1494
1503 1503 1502 1502 1501 1501 1501 1501 1501 1500 1500 1500 1501 1501 1500 1500 1500 1500 1499 1499 1499 1498 1498 1498 1497 1497 1496 1495 1495 1495 1494 1494 1493 1493 1492 1491 1490 1490 1490 1490 1490 1491 1492
1503 1502 1502 1501 1501 1501 1500 1500 1499 1499 1499 1499 1498 1498 1497 1497 1497 1497 1496 1495 1495 1495 1494 1494 1493 1493 1493 1492 1492 1491 1491 1491 1491 1490 1490 1489 1488 1488 1488 1487 1488 1488 1489
1502 1501 1501 1500 1500 1500 1499 1498 1498 1497 1497 1497 1496 1495 1495 1494 1493 1493 1492 1492 1492 1491 1490 1490 1490 1489 1489 1488 1488 1488 1488 1488 1487 1487 1486 1486 1485 1485 1485 1485 1485 1486 1486
1501 1501 1500 1500 1499 1498 1497 1497 1496 1495 1495 1494 1493 1493 1492 1491 1490 1489 1488 1488 1487 1487 1486 1485 1485 1484 1484 1484 1484 1484 1484 1484 1483 1483 1482 1482 1482 1482 1481 1482 1482 1483 1483
1500 1500 1499 1499 1498 1496 1495 1495 1494 1493 1492 1491 1491 1490 1489 1488 1487 1486 1485 1484 1483 1482 1482 1481 1480 1480 1480 1479 1479 1480 1480 1480 1480 1479 1479 1478 1478 1478 1478 1479 1479 1480 1480
1499 1498 1498 1497 1496 1495 1493 1492 1492 1490 1489 1488 1487 1486 1486 1484 1483 1482 1481 1480 1479 1478 1477 1476 1475 1474 1474 1474 1474 1474 1474 1475 1475 1475 1474 1474 1474 1474 1474 1475 1476 1476 1477
1498 1497 1496 1495 1494 1492 1491 1490 1489 1487 1486 1485 1484 1483 1482 1481 1479 1478 1477 1476 1475 1474 1472 1471 1470 1469 1469 1468 1468 1468 1469 1469 1469 1469 1470 1469 1469 1470 1470 1470 1471 1472 1473
1496 1495 1494 1493 1492 1491 1489 1488 1486 1484 1482 1481 1479 1478 1477 1476 1475 1474 1472 1471 1470 1469 1468 1467 1465 1464 1463 1463 1462 1462 1462 1462 1463 1463 1464 1464 1464 1465 1465 1466 1467 1467 1468
1494 1493 1493 1491 1490 1488 1487 1485 1483 1481 1479 1477 1476 1474 1473 1471 1470 1469 1467 1466 1465 1464 1463 1462 1460 1459 1458 1457 1456 1456 1455 1456 1456 1457 1457 1458 1458 1459 1460 1460 1461 1462 1463
1492 1491 1490 1489 1487 1486 1484 1482 1480 1478 1476 1474 1472 1470 1468 1466 1465 1463 1462 1460 1459 1458 1457 1455 1454 1453 1452 1451 1451 1450 1450 1449 1449 1450 1450 1451 1451 1452 1453 1454 1455 1456 1458
1490 1489 1487 1486 1484 1483 1481 1479 1477 1475 1473 1471 1468 1466 1464 1461 1459 1457 1455 1453 1452 1451 1449 1448 1447 1445 1445 1444 1443 1443 1443 1443 1443 1443 1443 1443 1444 1445 1446 1448 1449 1450 1451